Lapse_Rate
3.2 3.6 3.3 3.9 4.1 3.9 3.9 4.1 4.6 5.3 6.1 5.9 6.1 6.5 6.5 6.1 6.1 6.2 6.1 6.1 6.2 6.3 6.2 6.2 6.4 6.6 6.5 6.9 7.0 6.3 4.6 4.8 4.6 3.6 3.4 3.0 3.7 4.6 4.5 3.9 3.2 0.8 0.4
3.6 3.5 3.4 3.4 3.5 3.4 4.1 4.9 5.7 6.4 6.5 6.0 6.3 6.1 6.0 6.1 6.1 6.3 6.0 6.2 6.1 6.4 6.5 6.4 6.3 6.9 6.9 7.4 7.2 7.0 5.6 4.5 4.4 4.2 3.5 3.2 3.8 4.4 5.1 4.7 3.7 1.9 1.1
3.6 3.2 3.2 3.0 3.2 3.6 3.8 5.1 6.4 6.2 6.5 6.4 6.5 6.2 6.0 5.9 6.0 6.0 6.1 6.1 6.4 6.5 6.4 6.3 6.3 7.1 7.1 6.5 7.1 6.9 5.3 5.7 4.1 4.1 3.7 3.0 3.3 4.3 5.8 5.7 3.6 1.0 2.0
3.2 3.1 2.3 2.3 3.2 3.6 4.1 5.1 4.0 4.9 6.3 6.3 6.1 5.9 5.8 5.7 5.8 5.9 6.2 6.3 6.0 6.3 6.2 6.3 6.5 6.4 6.5 6.8 7.0 6.5 5.3 4.5 4.2 4.1 3.8 3.1 3.6 5.4 6.4 5.7 4.6 4.0 2.5
2.5 2.0 2.4 2.6 2.7 2.7 2.9 3.9 3.6 4.7 5.4 5.8 5.8 5.7 5.6 5.6 5.7 5.8 5.7 6.0 5.9 6.1 6.2 6.6 6.9 6.9 7.4 7.5 7.0 6.4 5.1 4.7 4.6 4.0 3.8 3.3 4.2 6.1 7.0 4.7 3.5 3.2 3.0
1.6 2.3 2.4 2.0 2.1 1.9 2.6 3.6 3.8 4.7 5.4 5.4 5.7 5.8 5.7 5.7 6.5 6.2 5.5 5.3 5.7 5.6 5.8 6.4 6.8 7.4 8.6 8.4 8.0 6.6 5.6 4.8 4.5 3.4 3.4 3.0 5.5 6.9 5.9 3.9 4.6 4.5 5.6
1.6 2.6 2.1 2.0 1.5 1.7 2.7 3.1 4.7 3.9 5.1 5.2 5.5 5.6 5.6 5.6 6.1 5.6 4.8 4.4 5.1 5.5 5.5 6.0 7.0 7.5 7.5 7.6 7.9 7.1 5.7 5.4 3.1 3.5 2.7 3.8 6.2 5.7 3.7 4.7 5.4 4.7 3.2
1.7 1.8 1.8 1.4 1.3 1.2 1.9 3.4 4.5 4.6 5.1 5.2 5.4 5.4 5.4 5.4 5.7 5.0 4.6 4.7 5.5 5.2 5.7 5.9 7.0 6.8 7.1 7.1 7.5 6.8 4.7 4.2 3.4 3.5 2.8 4.4 4.4 3.8 4.5 5.4 4.2 2.8 2.8
1.5 1.5 1.4 0.6 0.8 1.1 2.3 3.1 4.8 5.5 5.0 5.3 5.5 5.2 5.1 4.7 4.9 4.8 5.0 6.1 6.5 6.0 6.0 6.6 7.0 7.0 7.6 7.6 6.7 4.7 4.0 3.2 4.2 4.4 4.3 3.3 3.4 5.5 5.5 5.0 3.5 2.7 2.8
1.4 1.2 0.9 0.5 0.7 1.5 1.6 4.0 5.8 5.1 4.9 5.0 5.1 4.9 5.0 4.3 4.7 4.8 5.4 6.9 6.9 7.0 7.5 6.8 6.6 6.5 6.1 5.3 3.6 3.2 2.9 2.1 2.7 2.4 2.9 2.9 4.0 5.6 5.5 5.0 3.9 2.9 1.7
1.3 1.0 0.4 0.8 1.2 1.9 1.0 3.2 5.2 4.7 4.5 4.4 4.6 4.7 4.3 3.8 3.8 4.2 5.3 6.1 6.5 6.7 6.4 5.0 4.3 4.9 4.7 4.1 2.8 1.6 0.8 1.1 1.2 2.0 2.0 3.7 4.9 3.9 2.8 2.4 2.3 3.5 3.8
1.4 0.8 0.8 0.9 1.7 1.6 0.4 3.7 5.4 4.1 4.0 3.9 4.2 4.7 4.6 3.8 3.4 4.0 4.2 5.3 4.5 3.1 3.9 4.1 4.2 4.1 3.6 3.0 1.9 1.9 1.7 1.1 2.1 1.6 2.1 2.5 2.3 1.0 -0.4 -1.0 -1.3 -3.1 -3.2
1.0 0.5 0.6 0.9 1.4 1.8 1.2 2.5 3.8 3.2 3.6 4.0 3.8 4.3 4.4 4.2 3.0 3.2 3.7 3.4 3.8 3.7 2.6 2.1 2.4 2.8 2.4 1.7 1.6 1.1 0.6 2.9 2.1 1.6 1.1 1.0 -0.2 0.0 -0.2 -0.6 -2.0 -3.7 -5.0
0.6 0.5 1.1 0.7 0.6 1.1 2.9 2.8 3.3 2.7 3.0 3.7 3.4 3.3 3.6 3.5 2.9 2.8 3.9 3.9 3.6 3.7 2.6 3.0 2.6 2.2 2.5 2.0 2.5 3.0 3.4 2.6 1.6 0.8 0.2 0.6 0.9 1.0 0.2 0.3 -1.0 -1.8 -3.1
0.4 0.6 0.6 0.5 0.3 0.9 1.8 3.1 5.2 3.8 2.8 3.6 3.7 2.9 2.9 2.8 1.9 0.8 1.3 2.5 2.9 2.9 3.5 3.6 3.5 3.7 3.7 3.6 3.4 3.2 3.3 2.7 1.9 1.2 1.1 0.6 -0.5 0.2 -1.0 -1.1 -2.2 -2.3 -3.4
-0.1 0.1 -0.2 -0.2 0.4 0.1 0.1 1.5 3.1 3.3 3.3 2.8 3.0 3.0 3.1 1.8 1.7 0.9 1.4 1.5 2.0 2.0 2.2 2.0 2.0 2.7 2.5 2.8 2.5 2.3 2.2 1.0 1.1 0.5 0.2 -0.6 0.2 -0.7 -1.1 -1.6 -2.5 -3.2 -3.7
-0.7 -0.6 -0.9 -0.6 -0.3 -0.8 -1.0 -1.1 -0.3 1.8 2.7 2.9 1.9 1.5 1.4 1.3 0.6 1.7 0.6 0.3 1.1 1.2 1.2 0.9 1.1 1.5 1.4 1.8 1.8 1.0 0.2 -0.3 -0.3 -1.1 -1.1 -0.9 -1.7 -2.0 -2.4 -3.0 -2.9 -3.2 -3.9
-1.5 -2.4 -1.9 -2.1 -2.0 -1.1 -1.5 -1.8 -1.1 -0.9 -0.4 -0.1 1.6 -0.5 0.3 0.5 0.6 1.3 1.7 1.2 0.5 0.2 0.5 0.6 0.9 0.7 0.4 -0.2 -0.4 -0.5 -0.5 -0.8 -1.3 -1.6 -1.6 -1.9 -2.3 -2.5 -2.9 -3.4 -2.7 -3.2 -4.3
-2.0 -2.5 -2.5 -2.1 -1.7 -2.3 -2.0 -1.6 -1.3 -1.2 -1.4 -1.5 -0.6 -0.0 -0.2 -0.9 -0.6 -0.3 -0.9 -1.8 -0.7 -0.8 -0.8 -1.1 -1.0 -0.4 -0.6 -1.1 -1.7 -2.0 -2.3 -2.6 -2.6 -2.7 -2.8 -2.8 -2.7 -2.5 -3.2 -3.3 -3.7 -3.7 -3.7
-2.8 -4.2 -3.8 -2.5 -2.3 -1.8 -1.9 -1.7 -1.2 -1.4 -1.7 -1.8 -2.9 -4.1 -2.2 -1.6 -1.5 -1.6 -2.5 -2.8 -2.3 -2.3 -2.8 -3.2 -3.4 -3.4 -3.3 -3.1 -3.2 -3.0 -3.3 -3.4 -3.8 -4.0 -4.2 -4.0 -3.6 -3.2 -3.3 -3.5 -3.4 -3.7 -3.3
-3.0 -2.8 -3.8 -2.4 -2.6 -2.5 -2.4 -1.9 -1.7 -1.8 -1.6 -1.5 -2.4 -4.0 -4.7 -2.5 -1.9 -2.1 -2.1 -2.7 -3.0 -3.7 -4.4 -4.3 -4.1 -3.9 -3.9 -3.7 -3.6 -3.8 -4.0 -4.0 -3.7 -3.6 -3.7 -3.7 -3.8 -4.0 -3.8 -3.5 -3.1 -3.0 -3.1
-3.0 -2.5 -2.4 -2.4 -2.4 -2.3 -2.5 -2.4 -2.2 -1.7 -1.8 -1.8 -2.4 -2.6 -4.8 -3.8 -3.3 -2.7 -2.8 -3.5 -3.4 -3.0 -2.8 -3.2 -4.1 -4.7 -5.0 -4.2 -3.3 -3.4 -3.6 -3.9 -4.0 -4.1 -3.9 -3.6 -3.1 -3.3 -3.3 -3.4 -3.4 -3.1 -2.7
-3.0 -2.4 -2.5 -2.6 -2.6 -2.9 -2.4 -2.4 -2.8 -2.9 -2.6 -2.7 -2.8 -3.5 -4.3 -4.8 -4.7 -4.6 -4.7 -4.9 -4.1 -4.1 -4.0 -3.5 -3.2 -3.3 -3.9 -4.3 -4.5 -4.1 -4.5 -5.0 -4.7 -3.3 -3.3 -3.1 -3.0 -3.0 -3.1 -3.6 -3.7 -3.8 -3.6
-3.5 -2.8 -2.3 -2.5 -2.3 -2.4 -3.4 -4.1 -3.5 -4.2 -3.4 -3.9 -4.7 -4.4 -4.9 -5.5 -6.3 -6.4 -6.5 -6.0 -5.7 -5.4 -5.1 -4.9 -4.5 -4.0 -3.9 -4.4 -4.4 -4.3 -3.9 -2.9 -2.7 -3.3 -3.7 -3.9 -4.2 -4.0 -4.2 -4.3 -4.2 -4.6 -4.0
-3.7 -3.8 -4.7 -2.7 -4.3 -4.7 -5.0 -4.1 -4.4 -4.6 -4.4 -4.8 -4.0 -5.1 -5.7 -5.5 -5.4 -6.9 -6.3 -5.5 -5.2 -5.3 -5.2 -4.6 -4.2 -3.5 -2.9 -2.2 -1.6 -0.9 0.0 0.5 -0.1 -0.3 -1.7 -2.9 -4.0 -3.9 -4.1 -4.0 -3.8 -3.6 -4.0
-3.7 -3.7 -3.5 -3.5 -5.3 -6.0 -5.7 -6.3 -6.5 -6.0 -4.6 -4.2 -4.1 -4.0 -5.3 -6.0 -6.0 -6.8 -6.3 -5.7 -5.5 -4.6 -3.8 -2.8 -2.4 -2.0 -1.7 -1.6 -1.2 -0.4 -0.1 -0.1 -0.3 0.2 -0.2 -1.7 -3.2 -3.8 -3.5 -4.1 -3.9 -4.0 -3.4
Wind_Speed
7 7 8 8 9 8 8 9 9 8 7 7 12 10 8 10 8 10 9 8 10 9 9 9 8 13 9 8 8 7 3 3 3 1 1 2 2 2 4 7 8 7 7
7 7 8 9 9 9 9 10 11 9 6 7 10 9 9 10 9 8 9 8 10 11 11 11 11 8 10 12 8 10 8 4 3 3 1 3 2 1 4 6 6 6 9
7 8 10 11 10 11 10 11 11 12 9 10 10 10 11 10 8 7 8 8 10 9 12 13 11 13 13 9 10 9 7 6 3 3 1 2 1 1 3 4 4 5 6
9 10 12 12 12 11 11 12 10 12 10 11 11 11 11 11 9 7 7 7 8 9 11 13 13 9 14 13 11 10 9 6 4 3 2 1 1 2 5 6 4 2 3
9 10 13 13 13 12 12 12 9 10 11 12 11 11 11 8 5 5 5 6 8 10 12 12 13 15 21 17 9 11 10 7 6 4 2 1 0 5 9 3 3 4 4
9 11 12 13 13 13 12 11 12 13 12 12 11 12 11 6 11 9 4 3 7 11 13 13 14 22 21 23 20 15 12 9 7 4 2 2 2 4 5 4 6 7 5
8 11 13 13 14 14 13 13 13 13 13 13 13 13 10 11 17 14 9 4 7 11 15 13 12 10 17 15 18 16 13 11 7 5 5 3 3 4 5 6 8 2 6
10 11 12 14 14 14 14 13 14 12 13 12 12 13 11 13 20 17 13 9 10 12 16 16 14 15 14 15 14 12 9 8 7 4 5 3 4 5 8 4 8 13 10
11 12 13 13 14 15 15 15 14 12 12 11 12 14 15 16 23 19 11 12 13 15 15 15 15 16 21 23 15 13 11 6 13 10 5 2 8 11 14 9 10 13 7
10 11 11 12 13 16 16 16 13 11 11 10 12 14 19 15 23 20 12 10 14 12 14 16 22 17 24 23 12 12 11 6 6 4 1 4 2 22 16 11 11 10 10
8 10 11 13 13 15 14 11 14 12 13 13 13 14 16 18 18 22 17 9 12 13 12 11 10 24 22 16 11 6 5 8 7 4 2 2 8 7 7 13 12 12 9
7 9 11 12 10 11 15 14 15 14 14 14 14 13 12 13 22 23 22 18 14 14 14 9 11 20 18 17 10 13 12 7 6 3 5 8 8 9 9 17 21 25 26
8 10 11 11 11 11 12 14 13 13 12 12 11 11 11 10 10 21 25 23 20 12 10 14 17 14 14 10 14 12 7 3 6 6 7 6 5 8 20 20 26 33 33
7 9 10 11 13 13 10 11 14 13 12 11 12 11 10 11 10 8 8 10 19 17 19 13 12 11 9 10 9 8 8 8 8 7 9 8 8 9 9 10 11 10 11
6 8 9 9 10 11 10 8 12 15 15 11 9 10 10 11 11 14 13 10 10 11 14 12 12 11 11 11 10 10 10 10 10 8 9 9 9 10 8 7 8 9 8
6 6 7 8 9 9 9 10 15 15 24 28 27 16 11 18 24 22 22 22 20 20 14 12 11 11 10 10 10 9 9 10 9 8 9 10 9 9 10 9 10 11 11
6 6 6 8 8 9 9 10 11 13 21 29 30 30 29 25 22 21 26 29 24 24 13 11 11 10 9 9 9 10 10 9 9 9 9 9 9 10 11 10 9 11 10
6 7 5 5 6 7 7 8 8 10 12 12 19 23 26 28 28 25 21 23 15 16 11 11 10 9 9 9 9 10 10 10 10 9 10 10 9 10 10 10 8 10 10
4 4 4 4 5 6 6 8 8 11 10 11 10 15 17 22 28 28 28 14 12 12 10 11 9 9 10 10 10 10 11 10 10 10 10 10 8 10 10 10 10 11 12
4 5 5 4 4 6 7 8 8 9 10 11 12 11 10 15 16 15 13 12 12 10 9 10 10 10 10 10 9 9 10 11 10 10 9 9 9 9 11 10 8 9 8
3 3 5 4 5 5 5 6 6 7 7 8 9 11 14 12 12 12 12 12 11 10 10 9 9 9 8 9 10 10 11 10 9 9 9 9 8 10 9 9 9 9 9
3 3 3 4 4 4 4 4 4 6 6 7 6 9 12 9 9 10 10 10 9 13 15 13 9 11 12 10 9 10 11 10 9 9 10 9 9 9 9 9 9 8 8
3 3 3 3 3 4 4 4 4 4 5 5 6 6 7 7 8 8 8 7 13 16 17 19 18 18 19 20 19 17 13 9 12 17 13 8 9 9 8 9 9 8 8
4 3 2 2 2 3 3 3 3 5 4 4 4 4 4 5 5 6 6 11 14 17 20 20 20 19 20 22 23 24 26 27 27 25 23 18 9 10 9 9 8 8 7
3 3 2 2 1 1 2 2 3 3 3 3 3 2 2 3 4 4 9 13 16 17 19 22 24 26 28 29 29 29 28 28 29 29 28 24 20 16 10 6 6 6 6
3 3 2 1 1 2 2 2 2 2 2 2 3 4 2 2 3 4 4 8 11 12 13 16 19 21 23 23 24 25 25 25 25 26 28 25 18 13 12 7 8 4 6
Wind_Direction
313 308 307 301 297 290 290 289 284 284 280 289 303 291 272 269 261 240 227 210 203 197 184 188 190 185 193 172 177 184 175 134 128 90 284 345 23 40 65 101 116 91 107
311 311 301 301 304 305 305 306 314 303 282 304 317 308 287 276 270 244 234 219 208 198 186 177 180 186 180 173 168 176 189 155 128 124 1 25 69 41 123 121 106 100 106
314 319 317 316 317 315 314 320 339 333 302 318 312 306 307 299 289 259 237 221 214 197 180 176 176 189 176 155 164 168 169 167 121 115 90 19 47 99 130 117 96 76 101
329 330 324 326 329 329 333 338 346 326 327 321 319 313 312 306 290 262 237 218 202 184 167 169 168 170 160 160 159 165 168 139 123 117 99 2 36 150 140 135 118 149 142
336 333 336 337 336 337 336 338 329 332 333 322 321 320 318 306 288 245 215 194 184 167 160 162 164 164 164 162 156 167 157 145 145 125 111 123 168 155 156 111 121 117 101
335 339 338 343 341 341 338 336 345 335 334 335 329 329 330 330 19 42 87 164 160 157 154 154 161 166 171 168 162 161 157 153 148 126 146 143 167 134 146 139 150 121 146
343 342 339 345 341 343 343 343 351 341 341 340 339 345 349 7 32 33 72 89 117 144 145 146 152 157 154 157 153 139 152 132 120 125 156 194 96 132 134 144 159 148 94
354 345 346 344 341 343 346 348 358 346 346 343 347 356 7 18 26 37 66 83 88 107 133 139 142 141 148 149 146 144 141 137 144 170 173 138 47 141 150 139 123 102 87
356 352 347 339 341 349 347 352 358 353 351 352 359 9 18 25 28 39 67 90 90 97 115 127 130 132 143 147 147 141 139 144 163 168 174 314 334 142 133 132 117 106 107
353 340 335 342 346 352 352 357 360 357 359 4 10 18 22 28 33 46 73 98 100 104 112 120 128 139 147 151 147 144 142 144 128 127 165 283 90 135 129 128 120 121 121
341 335 342 353 350 354 350 356 9 5 10 17 18 22 28 30 38 48 61 87 116 117 121 126 131 147 148 137 123 127 132 127 129 113 52 52 105 78 76 85 109 134 124
337 342 349 348 348 352 357 6 17 14 18 22 24 29 29 31 40 53 61 64 89 119 125 125 132 140 136 124 115 124 119 99 103 99 89 93 94 88 75 81 80 75 68
353 353 354 346 345 358 6 11 23 19 22 28 28 29 29 28 32 44 59 64 65 83 109 126 125 119 113 107 115 116 125 105 106 104 100 96 94 113 110 100 90 82 68
5 359 353 354 348 359 18 20 34 29 25 30 31 30 31 36 34 33 54 71 76 86 90 99 108 108 104 113 116 108 96 105 115 111 107 115 117 104 99 115 100 94 84
13 6 359 357 358 359 4 13 36 52 42 37 33 38 35 42 32 47 65 74 78 84 90 85 84 86 90 92 92 97 105 107 107 109 104 105 96 93 83 84 82 82 88
20 10 3 2 2 6 7 7 28 44 57 51 45 46 44 48 51 52 64 68 77 79 75 76 76 78 82 88 88 94 96 97 93 96 97 99 102 100 95 85 89 94 101
33 14 7 13 11 10 13 19 14 12 38 49 46 44 45 48 50 63 70 68 62 74 71 69 71 74 76 82 86 88 89 80 87 86 92 95 102 93 93 90 93 101 92
42 27 25 7 10 17 13 9 17 27 20 21 33 43 41 49 53 50 61 65 61 57 65 67 70 70 75 77 80 86 84 81 79 82 83 82 80 91 91 87 87 103 102
47 35 28 19 16 10 18 24 27 28 26 24 29 31 31 53 56 53 55 62 65 58 55 57 58 67 72 75 76 75 77 76 77 78 73 75 80 95 88 89 91 92 94
49 27 39 34 23 28 24 32 35 30 30 32 31 17 13 47 47 49 50 51 54 51 51 59 57 61 65 72 76 79 79 75 77 77 77 79 82 91 95 94 89 93 86
79 49 38 40 38 37 37 37 33 37 40 38 32 15 16 51 48 45 47 49 53 53 51 54 55 57 58 66 74 78 80 79 80 84 82 77 78 85 82 86 90 90 99
99 70 53 53 46 46 45 45 43 44 37 42 32 26 21 46 46 49 49 44 43 51 56 66 63 57 56 65 78 90 89 89 88 89 87 85 88 88 89 89 91 91 88
116 94 71 57 61 60 59 58 57 51 50 45 39 37 32 40 45 46 45 38 48 50 48 57 65 63 59 62 64 75 86 81 83 102 103 98 96 96 97 96 95 93 94
129 123 105 65 52 59 61 70 76 71 61 60 54 49 43 34 38 42 41 45 54 55 60 64 67 75 74 73 77 83 90 95 96 95 97 96 93 92 90 87 86 88 97
151 151 142 153 141 111 78 49 66 92 86 78 66 42 57 56 48 38 49 62 69 70 72 79 83 84 84 88 89 92 95 97 100 104 99 94 90 84 88 93 101 98 90
180 194 215 226 179 160 158 145 148 135 80 82 114 124 107 83 97 100 75 89 87 85 84 86 89 93 95 96 99 103 106 108 110 114 115 111 104 96 93 91 88 86 97